Location: Kershaw
(34.5481°N, 80.5823°W)
Time: 08:19:29
(UTC+00:00)

Tiros 1 despin weight - Pass Details

Date: 12 October 2022
Orbit: 590 x 637 km, 48.2° (Epoch: 28 November)

Event Time Altitude Azimuth Distance (km) Brightness Sun altitude
Rises 18:54:13 0° 278° (W) 2,817 ? 41.0°
Reaches altitude 10° 18:57:03 10° 297° (WNW) 1,922 ? 40.7°
Maximum altitude 19:00:13 19° 343° (NNW) 1,431 ? 40.3°
Drops below altitude 10° 19:03:26 10° 29° (NNE) 1,941 ? 39.9°
Sets 19:06:19 0° 48° (NE) 2,855 ? 39.5°
